Home   Weather   Sandnes   Past weeks

Flag for Norway Past Weather in Sandnes, Norway — Yesterday and Last 2 Weeks

Now
45 °F

Passing clouds.


Feels Like: 42 °F
Forecast: 31 / 38 °F
Wind: 5 mph from West

Location: Stavanger / Sola

Current Time: Dec 11, 2016 at 9:17:37 am

Latest Report: Dec 11, 2016 at 8:20 am


Visibility: N/A

Pressure: 29.71 "Hg

Humidity: 93%

Dew Point: 43 °F

Location of SandnesLocation

Past Weather in Sandnes — Graph

°F

Sandnes Temperature Yesterday

Maximum temperature yesterday: 46 °F (at 12:20 am)
Minimum temperature yesterday: 41 °F (at 6:20 pm)
Average temperature yesterday: 45 °F

High & Low Weather Summary for the Past Weeks

 TemperatureHumidityPressure
High50 °F (Dec 8, 1:50 am)100% (Nov 30, 3:20 pm)30.51 "Hg (Nov 30, 3:20 pm)
Low25 °F (Nov 28, 4:50 am)61% (Nov 26, 3:50 pm)29.71 "Hg (Dec 11, 4:50 am)
Average41 °F87%30.10 "Hg
* Reported Nov 26 7:20 am — Dec 11 7:50 am, Sandnes, Weather by CustomWeather, © 2016

Note: Actual official high and low records may vary slightly from our data, if they occured in-between our weather recording intervals... More about our weather records

Advertising

Sandnes Weather History for the Previous 24 Hours

Scroll right to see more
 ConditionsComfort  
Time TempWeatherWind HumidityBarometerVisibility
7:50 am
Sun, Dec 11
45 °FPassing clouds.6 mph93%29.71 "HgN/A
6:50 am45 °FPartly cloudy.8 mph87%29.71 "HgN/A
6:20 am43 °FPartly cloudy.6 mph93%29.71 "HgN/A
5:50 am43 °FPartly cloudy.3 mph87%29.71 "HgN/A
4:50 am45 °FScattered showers. Partly cloudy.8 mph93%29.71 "Hg6 mi
3:50 am45 °FPartly cloudy.5 mph100%29.74 "Hg6 mi
2:50 am45 °FPartly cloudy.7 mph100%29.74 "Hg6 mi
1:50 am45 °FPassing clouds.6 mph93%29.74 "Hg6 mi
12:50 am45 °FLight rain. Passing clouds.8 mph100%29.77 "Hg6 mi
12:20 am45 °FPassing clouds.3 mph100%29.77 "Hg6 mi
11:50 pm
Sat, Dec 10
43 °FPassing clouds.6 mph100%29.77 "Hg6 mi
11:20 pm43 °FPartly cloudy.5 mph93%29.80 "Hg6 mi
10:50 pm43 °FPassing clouds.5 mph93%29.80 "Hg6 mi
10:20 pm41 °FPassing clouds.3 mph100%29.80 "Hg6 mi
9:50 pm43 °FPassing clouds.5 mph93%29.80 "Hg5 mi
9:20 pm41 °FPassing clouds.5 mph100%29.80 "Hg5 mi
8:50 pm41 °FPassing clouds.2 mph100%29.80 "Hg4 mi
8:20 pm41 °FPassing clouds.5 mph93%29.83 "Hg4 mi
7:50 pm41 °FPassing clouds.6 mph93%29.83 "Hg4 mi
7:20 pm41 °FPartly cloudy.5 mph93%29.83 "Hg4 mi
6:50 pm41 °FPassing clouds.3 mph93%29.83 "Hg6 mi
6:20 pm41 °FPassing clouds.3 mph100%29.83 "Hg6 mi
5:50 pm43 °FPassing clouds.6 mph93%29.83 "Hg4 mi
5:20 pm43 °FPassing clouds.3 mph93%29.83 "Hg6 mi
4:50 pm45 °FPassing clouds.3 mph93%29.83 "Hg6 mi
4:20 pm45 °FPassing clouds.5 mph93%29.83 "Hg6 mi
3:50 pm45 °FPassing clouds.3 mph93%29.83 "Hg6 mi
3:20 pm46 °FScattered clouds.6 mph93%29.86 "Hg6 mi
2:50 pm46 °FScattered clouds.6 mph93%29.83 "Hg6 mi
2:20 pm46 °FSleet. Passing clouds.7 mph93%29.86 "HgN/A
1:50 pm46 °FScattered showers. Partly sunny.6 mph93%29.86 "Hg6 mi
1:20 pm46 °FScattered showers. Scattered clouds.8 mph93%29.86 "Hg6 mi
12:50 pm46 °FScattered showers. Broken clouds.7 mph93%29.83 "Hg6 mi
12:20 pm46 °FScattered showers. Broken clouds.9 mph93%29.83 "Hg6 mi
11:50 am46 °FScattered showers. Broken clouds.9 mph93%29.83 "Hg6 mi
11:20 am46 °FScattered showers. Passing clouds.12 mph93%29.83 "HgN/A
10:50 am46 °FScattered showers. Passing clouds.12 mph93%29.80 "HgN/A
10:20 am46 °FSprinkles. Scattered clouds.13 mph93%29.80 "Hg3 mi
9:50 am46 °FBroken clouds.14 mph93%29.80 "Hg6 mi
9:20 am46 °FPartly sunny.14 mph93%29.80 "Hg6 mi
Weather by CustomWeather, © 2016

See weather overviewHow to use our weather pages